Location: Antist
(43.1184°N, 0.1270°E)
Time: 01:57:28
(UTC+00:00)

Daily predictions for brighter satellites

Satellite Brightness Start Highest point End
(mag) Time Altitude Azimuth Time Altitude Azimuth Time Altitude Azimuth
Cosmos 2297 Rocket 4.1 00:05:41 10° N 00:10:17 25° NE 00:14:52 10° ESE
Cosmos 1782 4.0 00:08:51 10° N 00:11:51 32° ENE 00:11:51 32° ENE
SL-08 ROCKET BODY 4.3 00:11:57 57° S 00:13:18 89° ESE 00:19:19 10° N
NOSS 3-4 (A) 4.1 00:06:42 10° NW 00:13:34 55° WSW 00:15:34 44° SSW
NOSS 3-4 (C) 4.1 00:06:47 10° NW 00:13:39 56° WSW 00:15:40 45° SSW
Cosmos 1975 Rocket 4.4 00:14:30 28° W 00:14:56 29° WNW 00:18:45 10° NNW
BREEZE-M DEB (TANK) 4.3 00:11:36 10° W 00:15:32 55° N 00:29:45 10° ENE
Cosmos 2058 3.4 00:18:00 50° ENE 00:18:00 50° ENE 00:21:22 10° NNE
Cosmos 1818 3.5 00:13:27 10° NW 00:18:50 64° WSW 00:19:09 62° SW
Cosmos 44 3.0 00:19:22 70° WNW 00:19:25 70° NW 00:23:48 10° NNE
Cosmos 2228 4.0 00:22:29 10° NNW 00:25:54 35° WNW 00:25:54 35° WNW
Cosmos 1680 Rocket 3.9 00:26:30 10° NNW 00:31:42 58° ENE 00:33:13 42° ESE
RESURS DK-1 4.4 00:29:54 10° N 00:33:08 23° NE 00:34:58 17° E
Cosmos 1697 Rocket 4.3 00:32:50 20° ESE 00:33:52 21° E 00:38:01 10° NE
H-2A R/B 3.5 00:34:14 32° E 00:34:30 32° ENE 00:37:53 10° N
Cosmos 1656 3.7 00:33:45 54° SSE 00:34:35 61° ESE 00:40:05 10° NNE
Cosmos 923 Rocket 3.8 00:33:57 10° NNW 00:39:10 89° WSW 00:39:56 65° SSE
Cosmos 2227 Rocket 4.4 00:37:24 10° N 00:41:40 21° NE 00:45:55 10° E
Cosmos 1400 Rocket 3.5 00:40:27 10° NNW 00:43:29 44° NW 00:43:29 44° NW
EO 1 Delta rocket 4.2 00:46:45 48° WSW 00:46:54 48° W 00:51:22 10° NNW
Cosmos 1937 Rocket 3.8 00:47:15 48° WSW 00:48:15 57° WNW 00:53:19 10° NNE
ISS -0.9 00:50:35 10° NW 00:53:05 19° N 00:55:36 10° NE
H-2A R/B 4.4 00:55:15 10° ENE 00:57:01 12° E 00:58:11 11° ESE
Cosmos 1441 Rocket 4.3 00:58:03 31° E 00:58:03 31° E 01:00:52 10° NNE
Cosmos 2315 Rocket 4.0 00:52:42 10° N 00:59:07 87° W 01:01:14 46° S
DELTA 2 R/B (1) 4.0 01:07:24 42° SE 01:07:24 42° SE 01:12:08 10° E
Cosmos 1933 3.3 01:03:09 10° N 01:07:01 69° E 01:07:01 69° E
Meteor 2-3 Rocket 3.9 01:10:11 44° SSE 01:12:00 69° E 01:17:47 10° NNE
CZ-2C R/B 2.6 01:11:03 52° S 01:12:23 75° WSW 01:17:57 10° NNW
DNEPR-1 R/B 3.6 01:08:22 10° NW 01:12:14 60° W 01:12:14 60° W
Orbus 7S? 4.5 01:17:40 40° SE 01:18:26 43° ESE 01:26:03 10° NE
Cosmos 1655 Rocket 4.1 01:20:19 41° SW 01:22:31 66° W 01:28:54 10° N
Cosmos 1606 Rocket 4.1 01:19:09 10° NNW 01:23:12 41° W 01:23:12 41° W
Cosmos 2058 Rocket 3.2 01:20:02 10° N 01:24:27 70° E 01:25:27 50° SE
Cosmos 1315 Rocket 3.0 01:20:51 10° N 01:24:37 57° ENE 01:25:07 52° ESE
IDEFIX/ARIANE 42P 2.8 01:25:22 10° NNE 01:30:30 60° E 01:32:15 39° SSE
CZ-2C R/B 3.6 01:33:23 10° N 01:37:56 41° WNW 01:39:09 34° WSW
Cosmos 2360 4.4 01:36:32 38° SW 01:38:37 63° WNW 01:44:17 10° NNE
CZ-4C R/B 4.1 01:37:12 10° W 01:40:46 21° NNW 01:44:59 10° NNE
Meteor 1-26 Rocket 4.3 01:36:20 10° N 01:41:44 71° ENE 01:44:35 28° SSE
ADEOS II 3.9 01:42:23 10° NE 01:46:32 23° E 01:50:13 12° SE
Cosmos 2263 Rocket 3.8 01:42:40 10° N 01:47:45 33° NE 01:52:46 10° ESE
Cosmos 494 Rocket 4.2 01:42:54 10° NNW 01:47:59 52° WSW 01:49:10 42° SSW
Cosmos 2297 Rocket 2.3 01:49:09 10° NNW 01:54:40 56° WSW 01:56:44 36° SSW
CZ-2D R/B 3.0 01:53:05 10° NNE 01:58:02 40° E 02:01:07 20° SSE
MOZ.5/SAFIR/RUBIN 5/SL-8 3.7 01:56:34 31° SSE 01:58:46 84° ENE 02:03:26 10° NNW
BREEZE-M DEB (TANK) 3.0 01:59:52 10° NW 02:02:17 37° NNE 02:04:26 10° E
Cosmos 1758 Rocket 3.5 02:05:25 41° S 02:06:56 89° E 02:11:21 10° N
Cosmos 1602 Rocket 3.8 02:05:12 31° SSE 02:07:02 60° E 02:11:17 10° NNE
Cosmos 1980 Rocket 2.5 02:05:14 28° S 02:08:04 57° ESE 02:13:33 10° NNE
H-2A R/B 4.1 02:09:35 16° W 02:09:35 16° W 02:11:27 10° NW
Tiangong -1.2 02:10:34 36° SE 02:10:34 36° SE 02:13:09 10° E
RESURS DK-1 3.2 02:07:05 10° NW 02:10:15 30° W 02:10:15 30° W
Resurs 1-4 Rocket 2.4 02:07:06 10° NNE 02:12:22 60° ESE 02:15:35 24° S
Cosmos 1626 Rocket 3.6 02:12:06 40° SW 02:13:27 60° W 02:17:46 10° N
SeaSat 1 2.4 02:11:34 28° S 02:14:03 59° WSW 02:18:55 10° NW
Nadezhda 1 Rocket 4.0 02:08:07 10° N 02:14:25 87° E 02:19:10 18° S
Meteor 2-2 Rocket 4.4 02:09:11 10° NNW 02:14:40 54° W 02:17:16 30° SSW
Cosmos 468 4.4 02:10:20 10° NNW 02:15:41 83° WSW 02:19:48 17° SSE
Cosmos 1745 Rocket 4.0 02:12:25 25° S 02:16:24 85° E 02:22:48 10° N
Cosmos 1697 Rocket 3.0 02:14:32 29° SW 02:17:20 57° WNW 02:22:55 10° NNE
H-2A R/B 4.4 02:18:22 10° NE 02:21:16 15° E 02:24:09 10° SE
BlueWalker 3 3.8 02:20:16 10° NW 02:23:34 31° NNE 02:26:51 10° E
Cosmos 614 Rocket 4.2 02:19:06 10° NNW 02:24:09 69° ENE 02:29:10 10° SSE
FENGYUN 3A 3.6 02:19:31 10° N 02:24:55 76° WNW 02:27:59 27° SSW
Cosmos 2227 Rocket 2.1 02:20:36 10° NNW 02:26:15 68° WSW 02:31:20 13° SSE
MSX 4.2 02:22:43 10° N 02:28:14 49° WNW 02:31:23 24° SW
Cosmos-2242 3.9 02:24:51 10° NNW 02:28:32 30° W 02:29:26 28° WSW
ISS -2.3 02:27:15 10° NW 02:30:27 40° NNE 02:33:38 10° E
Cosmos 1709 Rocket 4.1 02:25:56 19° S 02:30:43 80° E 02:37:06 10° N
Okean 1 3.0 02:28:53 10° N 02:32:37 77° W 02:34:28 28° S
H-2A R/B 2.1 02:28:40 10° N 02:32:46 59° WNW 02:34:42 30° SW
Cosmos 1932 4.5 02:31:45 25° SW 02:35:38 78° NW 02:42:02 10° NNE
Okean 1-7 Rocket 3.5 02:35:08 26° SSW 02:37:36 82° W 02:42:06 10° N
ATLAS 2AS CENTAUR R/B 3.5 02:31:53 10° NNW 02:38:32 54° NE 02:45:04 10° SE
SL-23 DEB 4.1 02:37:57 30° S 02:38:52 38° SE 02:42:04 10° ENE
USA 290 3.7 02:36:33 10° N 02:39:40 39° ENE 02:42:46 10° SE
NPP 4.5 02:39:33 10° N 02:44:29 38° WNW 02:47:39 20° WSW
ALOS 2.3 02:41:05 10° NNE 02:45:40 77° ESE 02:49:03 18° S
Cosmos 1743 3.4 02:45:31 14° SSE 02:48:06 41° E 02:51:18 10° NNE
Cosmos 2221 2.4 02:45:06 10° NNW 02:49:21 68° W 02:52:33 17° S
Cosmos 1125 Rocket 4.2 02:46:24 21° WSW 02:49:32 41° WNW 02:54:32 10° N
Cosmos 192 4.4 02:46:47 23° SSW 02:49:52 71° WNW 02:54:48 10° NNE
Cosmos 2298 Rocket 4.0 02:48:24 19° SSW 02:52:15 86° ESE 02:57:36 10° NNE
DELTA 2 R/B (1) 3.6 02:48:05 14° WSW 02:52:54 62° S 02:58:24 10° E
Cosmos 2151 3.0 02:51:45 23° SSW 02:54:14 61° W 02:58:22 10° N
Cosmos 1953 Rocket 3.9 02:56:52 11° S 03:00:59 65° E 03:05:19 10° NNE
Cosmos 2322 Rocket 4.4 02:58:30 10° SE 03:02:29 20° E 03:06:27 10° NE
Cosmos 2369 3.7 03:01:07 17° SSW 03:05:34 82° WNW 03:11:16 10° NNE
Cosmos 2333 Rocket 4.2 03:03:06 10° SSE 03:07:30 23° ESE 03:11:54 10° NE
Meteor 1-19 Rocket 4.1 03:02:41 10° NNW 03:08:09 84° W 03:13:43 10° S
IDEFIX/ARIANE 42P 4.3 03:05:54 10° NNW 03:09:30 19° WNW 03:12:56 10° WSW
Cosmos 1812 Rocket 4.4 03:06:17 10° NNW 03:10:10 31° W 03:12:55 16° SW
Lacrosse 5 rocket 3.6 03:09:37 10° NNW 03:13:00 26° NNE 03:16:19 10° E
Meteor 1-20 Rocket 4.3 03:08:15 12° SSW 03:13:42 76° W 03:19:33 10° N
Meteor 1-28 Rocket 4.0 03:11:05 10° SSE 03:14:20 47° ENE 03:17:34 10° N
Cosmos 2082 3.7 03:10:32 10° NNW 03:16:15 84° WSW 03:21:53 10° SSE
USA 234 3.6 03:11:38 10° NE 03:18:04 59° SE 03:24:13 11° SSW
Cosmos 1707 3.9 03:18:29 10° N 03:21:34 36° ENE 03:24:37 10° SSE
Cosmos 921 Rocket 3.1 03:20:18 10° NNW 03:24:40 59° WSW 03:28:57 10° S
Cosmos 2219 3.3 03:19:14 10° NNW 03:24:46 54° WSW 03:30:14 10° S
CZ-3 R/B 4.1 02:48:19 10° WSW 03:25:09 48° S 03:35:24 10° ESE
Cosmos 1733 2.8 03:22:43 10° S 03:25:41 67° E 03:28:40 10° NNE
Cosmos 1825 Rocket 4.2 03:22:38 14° SW 03:25:59 38° WNW 03:30:03 10° N
ADEOS II 2.6 03:21:17 10° N 03:26:17 46° WNW 03:31:02 11° SW
SL-16 R/B 2.8 03:21:28 10° S 03:26:57 55° ESE 03:32:28 10° NNE
Envisat 3.3 03:23:29 10° N 03:28:24 52° WNW 03:33:15 10° SW
SL-16 R/B 2.6 03:22:35 10° SSE 03:28:50 82° WSW 03:35:09 10° NNW
Cosmos 1238 Rocket 4.2 03:24:52 10° NNW 03:29:37 35° W 03:34:14 10° SSW
Cosmos 2263 Rocket 2.7 03:26:29 10° NW 03:31:42 39° WSW 03:36:50 10° S
METEOR-M 4.2 03:31:12 10° N 03:36:33 76° WNW 03:41:51 10° SSW
CZ-2D R/B 3.3 03:33:27 10° N 03:37:48 27° WNW 03:42:07 10° WSW
KORONAS-FOTON 3.6 03:34:46 10° N 03:38:19 84° E 03:41:51 10° S
Gbstr 26 Del rocket 4.3 03:31:39 10° WNW 03:38:20 61° SW 03:45:57 10° SE
Cosmos 1076 Rocket 3.8 03:34:29 10° SSW 03:38:38 50° WNW 03:42:49 10° N
DMSP B5D2-2 4.4 03:35:15 10° S 03:40:17 47° W 03:45:22 10° NNW
H-2A R/B 3.3 03:41:43 10° NNE 03:45:38 85° ESE 03:49:30 10° SSW
OAO 2 Rocket 4.3 03:41:31 10° SW 03:45:55 31° S 03:50:23 10° ESE
ARGOS Delta rocket 4.4 03:41:19 10° NNE 03:46:42 72° E 03:51:49 10° S
Tiangong -2.0 03:43:40 10° W 03:46:56 66° S 03:50:11 10° E
Meteor 1-27 Rocket 4.0 03:41:46 10° NNW 03:47:35 59° W 03:53:22 10° S
Cosmos 2074 Rocket 4.0 03:44:01 10° SSW 03:50:12 76° W 03:56:26 10° N
Cosmos 2237 4.4 03:45:08 10° SW 03:50:46 66° WNW 03:56:27 10° NNE
Resurs 1-4 Rocket 3.7 03:47:55 10° NNW 03:51:40 20° WNW 03:55:23 10° WSW
Cosmos 44 Rocket 4.2 03:48:00 10° S 03:52:23 42° ESE 03:56:50 10° NE
Cosmos 1980 Rocket 3.6 03:47:56 10° WSW 03:52:24 24° NW 03:56:55 10° N
